www.pogodaiklimat.ru

Погода и климат >> Архив погоды >> Иран >> Kerman


ПОГОДА в Kerman

  • Прогноз погоды в Kerman
  • Монитор погоды в Kerman
  • Климат города

АРХИВ ПОГОДЫ в Kerman

Время (UTC), дата Ветер
(напр.,м/с)
 
Видим.   Явления Облачность Т
(С)
Тd
(С)
f
(%)
Тe
(С)
Тes
(С)
Комфортность P
(гПа)
Po
(гПа)
Тmin
(С)
Tmax
(С)
R
(мм)
R24
(мм)
S
(см)
03 9.07 В 2 20 км ясно +22.2 -10.3 10 +20 +23 998.9 821.7 +18.8
06 9.07 С 4 20 км ясно +31.7 -12.5 5 +27 +38 жарко 997.6 821.7
09 9.07 С 7 20 км ясно +34.3 -10.7 5 +30 +36 жарко 996.8 820.6
12 9.07 С 9 20 км ясно +33.9 -11.0 5 +29 +30 жарко 996.2 819.7
15 9.07 С 4 20 км ясно +32.2 -9.9 6 +28 +28 жарко 998.0 820.3 +35.0
18 9.07 В 3 20 км ясно +29.0 -8.6 8 +25 +25 комфорт 997.2 821.6
21 9.07 С 3 20 км ясно +24.0 -9.5 10 +22 +22 комфорт 997.5 821.3
00 10.07 СВ 2 20 км ясно +23.0 -9.0 11 +21 +21 комфорт 997.8 821.2
03 10.07 ЮВ 2 20 км ясно +21.6 -8.0 13 +20 +23 1000.1 822.2 +18.9
06 10.07 СЗ 6 20 км ясно +30.2 -9.4 7 +26 +33 жарко 998.5 822.3
09 10.07 СВ 2 20 км ясно +33.2 -10.7 5 +29 +50 жарко 997.6 821.2
12 10.07 СЗ 4 20 км ясно +35.0 -10.2 5 +30 +36 жарко 995.8 819.9
15 10.07 С 4 20 км ясно +32.4 -6.0 8 +28 +28 жарко 997.4 820.0 +36.3
18 10.07 СЗ 2 10 км ясно +27.1 -4.7 12 +24 +24 комфорт 998.3 821.6
21 10.07 СВ 3 10 км ясно +28.1 -3.8 12 +25 +25 комфорт 996.4 821.3
00 11.07 С 3 10 км ясно +25.0 -1.7 17 +23 +23 комфорт 997.0 821.5
03 11.07 С 4 6000 м пыль ясно +26.0 -1.0 17 +24 +26 комфорт 998.8 822.5 +22.9
06 11.07 С 7 10 км ясно +31.3 -11.0 6 +27 +32 жарко 999.2 822.5
09 11.07 С 6 10 км ясно +32.9 -10.5 5 +28 +37 жарко 996.4 821.0
12 11.07 С 6 10 км ясно +33.8 -11.1 5 +29 +33 жарко 995.9 820.0
15 11.07 СВ 6 10 км ясно +31.4 -9.9 6 +27 +27 жарко 996.4 820.1 +35.0
18 11.07 СВ 4 10 км ясно +28.3 -8.6 8 +25 +25 комфорт 997.0 821.2
21 11.07 СЗ 4 10 км ясно +24.1 -6.9 12 +22 +22 комфорт 996.6 820.3
00 12.07 С 3 10 км ясно +24.1 -5.5 14 +22 +22 комфорт 996.1 820.1
03 12.07 ЮВ 2 10 км ясно +25.9 -6.8 11 +23 +26 комфорт 997.9 821.3 +19.9
06 12.07 С 7 15 км ясно +29.6 -5.2 10 +26 +31 жарко 997.7 821.3
09 12.07 С 6 15 км ясно +31.8 -10.2 6 +27 +36 жарко 996.6 819.9
12 12.07 С 6 15 км ясно +33.2 -11.5 5 +29 +32 жарко 994.4 818.4
15 12.07 С 6 15 км ясно +30.7 -13.2 5 +26 +26 жарко 994.5 818.1 +33.7
18 12.07 С 3 15 км ясно +24.5 -11.8 8 +22 +22 комфорт 997.1 819.8
21 12.07 С 3 15 км ясно +23.4 -10.3 10 +21 +21 комфорт 995.8 819.1
00 13.07 СВ 3 15 км ясно +23.2 -10.1 10 +21 +21 комфорт 995.3 818.9
03 13.07 штиль 0 15 км ясно +23.7 -9.5 10 +21 +25 комфорт 996.8 819.6 +17.6
06 13.07 С 5 15 км ясно +29.6 -14.0 5 +25 +34 комфорт 996.9 819.6
09 13.07 СЗ 4 15 км ясно +32.3 -12.1 5 +28 +42 жарко 995.1 818.5
12 13.07 СЗ 5 15 км ясно +33.9 -11.0 5 +29 +34 жарко 992.6 816.9
15 13.07 С 6 15 км ясно +31.4 -10.5 6 +27 +27 жарко 993.0 816.6 +34.5
18 13.07 С 3 15 км ясно +25.1 -15.0 6 +22 +22 комфорт 994.9 818.1
21 13.07 С 2 15 км ясно +23.3 -15.0 7 +20 +20 994.9 818.3
00 14.07 В 3 15 км ясно +16.9 -10.7 14 +17 +17 996.3 818.3
03 14.07 ЮВ 2 15 км ясно +20.1 -10.7 12 +20 +23 997.6 819.5 +14.8
06 14.07 ЮВ 2 15 км ясно +32.4 -12.0 5 +28 +44 жарко 995.5 819.3
09 14.07 СЗ 3 15 км ясно +33.8 -11.1 5 +29 +47 жарко 993.9 817.9
12 14.07 С 5 15 км ясно +35.3 -10.0 5 +31 +35 жарко 993.5 816.4
15 14.07 С 5 15 км ясно +33.3 -11.4 5 +29 +29 жарко 992.9 816.1 +36.3
18 14.07 СВ 5 15 км ясно +29.2 -12.0 6 +25 +25 комфорт 992.0 817.5
21 14.07 штиль 0 15 км ясно +20.2 -13.3 9 +19 +19 994.5 817.6
00 15.07 Ю 2 15 км ясно +17.4 -12.3 12 +18 +18 994.4 817.3
03 15.07 штиль 0 15 км ясно +24.2 -12.1 8 +21 +25 комфорт 994.2 818.2 +15.3
06 15.07 штиль 0 15 км ясно +33.3 -11.4 5 +29 +51 опасность
солнечного
удара
992.6 818.3
09 15.07 СЗ 3 15 км ясно +35.3 -10.0 5 +31 +48 жарко 993.1 816.9
12 15.07 С 4 15 км 1/1 1200 м
[Cu hum]
+37.1 -8.8 5 +33 +38 жарко 991.6 815.4
15 15.07 С 4 15 км ясно +34.4 -10.6 5 +30 +30 жарко 989.9 815.0 +37.5
18 15.07 В 2 10 км ясно +29.2 -12.0 6 +25 +25 комфорт 990.1 816.2
21 15.07 штиль 0 10 км ясно +22.8 -11.7 9 +20 +20 991.3 816.2
00 16.07 штиль 0 10 км ясно +20.4 -12.2 10 +19 +19 991.8 816.3

 

Местоположение метеостанции Kerman (Иран): широта 30.25 долгота 56.97 высота над уровнем моря 1754 м.

В архиве по умолчанию представлена погода в Kerman за последнюю неделю. Архивные данные за месяц целиком и за предыдущие месяцы, начиная с января 2011 года, Вы можете получить, выбрав интересующий диапазон дат из раскрывающегося списка и нажав кнопку "Ввод!".


*Определитесь, кто Вы:
робот инопланетянин человек

Внимание! Время в таблицах - всемирное. Для получения местного времени необходимо прибавить поправку, которая в Kerman равна 3.5 ч.

Смотрите также архив погоды в соседних городах и на ближайших метеорологических станциях:

Погода в Baft (Иран) (120 км)
Погода в Sirjan (Иран) (149 км)
Погода в Bam (Иран) (188 км)
Погода в Kahnuj (Иран) (263 км)
Погода в Yazd (Иран) (315 км)
Погода в Nehbandan (Иран) (325 км)
Погода в Bandarabbass (Иран) (342 км)
Погода в Fasa (Иран) (349 км)
Погода в Birjand (Иран) (360 км)
Погода в Tabas (Иран) (373 км)

Пояснения к столбцам:

Ветер - указаны скорость ветра в м/с - средняя за 10 мин, порывы в срок и между сроками (в фигурных скобках) и направление, откуда дует ветер: С - северный, СВ - северо-восточный, В - восточный, ЮВ - юго-восточный, Ю - южный, ЮЗ - юго-западный, З - западный, СЗ - северо-западный.
Видимость - горизонтальная дальность видимости в метрах или километрах. При видимости от 1 до 10 км при отсутствии осадков обычно наблюдается дымка, при ухудшении видимости до 1 км и менее - туман. В сухую погоду видимость может ухудшаться дымом, пылью или мглою.
Явления - указаны атмосферные явления, наблюдавшиеся в срок или в последний час перед сроком; фигурными скобками обозначены явления, наблюдавшиеся между сроками (за 1-3 часа до срока); квадратными скобками обозначены град или гололедные отложения с указанием их диаметра в мм.
Облачность - указаны через наклонную черту общая и нижняя облачность в баллах и высота нижней границы облаков в метрах; квадратными скобками обозначены формы облаков: Ci - перистые, Cs - перисто-слоистые, Cc - перисто-кучевые, Ac - высококучевые, As - высокослоистые, Sc - слоисто-кучевые, Ns - слоисто-дождевые, Cu - кучевые, Cb - кучево-дождевые. Подробнее классификацию облаков см. в Атласе облаков (PDF).
T - Температура воздуха - температура, измеренная на высоте 2 м над землей.
Td - Температура точки росы - температура, при понижении до которой содержащийся в воздухе водяной пар достигнет насыщения.
f - Относительная влажность воздуха - влажноcть воздуха, измеренная на высоте 2 м над землей.
Te - Эффективная температура - температура, которую ощущает одетый по сезону человек в тени. Характеристика душности погоды. При расчете учитывается влияние влажности воздуха и скорости ветра на теплоощущения человека.
Tes - Эффективная температура на солнце - температура, которую ощущает человек, с поправкой на солнечный нагрев. Характеристика знойности погоды. Зависит от высоты солнца над горизонтом, облачности и скорости ветра. Ночью, в пасмурную погоду, а также при ветре 12 м/с и более поправка равна нулю.
P - Атмосферное давление - приведенное к уровню моря атмосферное давление.
Po - Атмосферное давление - измеренное на уровне метеостанции атмосферное давление.
Tmin - Минимальная температура - минимум температуры воздуха на высоте 2 м над землей.
Tmax - Максимальная температура - максимум температуры воздуха на высоте 2 м над землей.
R - Количество осадков - Количество выпавших осадков за период времени, мм. При наведении курсора мыши на число - период времени, за который выпало указанное количество осадков.
R24 - Количество осадков - Количество выпавших осадков за 24 часа, мм.
S - Снежный покров - Высота снежного покрова, см. При наведении курсора мыши на число - состояние снежного покрова и степень покрытия местности в баллах.